Location: ????????
(55.6333°N, 37.7000°E)
Time: 15:01:53
(UTC+00:00)

Lacrosse 4 Rocket - Pass Details

Date: 19 May 2025
Orbit: 513 x 576 km, 68.0° (Epoch: 21 June)

Event Time Altitude Azimuth Distance (km) Brightness Sun altitude
Rises 23:40:23 0° 319° (NW) 2,712 5.1 -9.2°
Reaches altitude 10° 23:42:43 10° 329° (NNW) 1,828 4.3 -9.0°
Maximum altitude 23:46:30 35° 36° (NE) 908 3.3 -8.7°
Drops below altitude 10° 23:50:20 10° 104° (ESE) 1,856 4.3 -8.4°
Sets 23:52:43 0° 113° (ESE) 2,759 5.1 -8.2°
